Location: Hemaruka
(51.7801°N, 111.0917°W)
Time: 09:45:04
(UTC+00:00)

NOAA 15 - Pass Details

Date: 10 December 2023
Orbit: 797 x 810 km, 98.6° (Epoch: 02 March)

Event Time Altitude Azimuth Distance (km) Brightness Sun altitude
Rises 03:52:34 0° 221° (SW) 3,317 8.0 -41.6°
Reaches altitude 10° 03:56:21 10° 249° (WSW) 2,390 7.5 -42.1°
Maximum altitude 03:58:41 13° 276° (W) 2,193 7.4 -42.5°
Drops below altitude 10° 04:01:02 10° 302° (WNW) 2,395 7.6 -42.8°
Sets 04:04:51 0° 330° (NNW) 3,329 8.3 -43.4°
